GPS IIR-7

operational
NORAD ID: 26690 Int'l Des: 2001-004 Owner: AFSMC Country: US Constellation: GPS
MEOCIRCULAR

关于 GPS IIR-7

正在加载描述...

实时位置

正在加载3D地球...

即将过境

高度历史

Altitude vs Time

uPlot chart will show altitude changes over time

两行轨道根数

1 26690U 01004A 26060.32141128 -.00000066 00000-0 00000+0 0 9996
2 26690 55.1422 36.6780 0002806 354.6919 153.1511 1.91587951181471
Epoch: Mar 1, 2026 • Age: 70 hours

当前状态

高度 21014.3 km
速度 3.82 km/s
星下点 36.09°N, 56.38°E
发射日期 Jan 30, 2001
运行时间 25 years
类型 navigation

技术详情

分类 Payload
质量 1077.00 kg
干质量 910.00 kg
总质量 2032.00 kg
长度 1.50 m
直径 1.90 m
跨度 19.30 m
形状 Box + 2 Pan
制造商 LMMS
平台类型 Series 4000
阶段状态 In Orbit
所有者/国家 AFSMC/US

大型星座

Loading constellations...